Weather History for KBTV - January, 2014

Change the Weather History Date:

Sunday, January 19, 2014

  Actual Average Record
Temperature  
Mean Temperature 29 °F 18 °F  
Max Temperature 32 °F 27 °F 65 °F (1996)
Min Temperature 26 °F 10 °F -24 °F (1976)
Degree Days  
Heating Degree Days 36 47  
Month to date heating degree days 789 878  
Since 1 July heating degree days 3562 3637  
Cooling Degree Days 0 0  
Month to date cooling degree days 0 0  
Year to date cooling degree days 0 0  
Moisture  
Dew Point 23 °F    
Average Humidity 78    
Maximum Humidity 92    
Minimum Humidity 63    
Precipitation  
Precipitation 0.17 in 0.07 in 1.62 in (1996)
Month to date precipitation 2.35 1.26  
Year to date precipitation 2.35 1.26  
Snow  
Snow 3.00 in 0.70 in 9.00 in (1931)
Month to date snowfall 9.2 12.9  
Since 1 July snowfall 30.9 36.2  
Snow Depth 2.00 in    
Sea Level Pressure  
Sea Level Pressure 29.58 in    
Wind  
Wind Speed 11 mph (South)    
Max Wind Speed 23 mph    
Max Gust Speed 31 mph    
Visibility 5 miles    
Events Fog , Snow    
T = Trace of Precipitation, MM = Missing Value Source: NWS Daily Summary

Daily Weather History Graph

Daily Weather History Graph

Search for Another Location

Airport or City:

Trip Planner

Search our weather history database for the weather conditions in past years. The results will help you decide how hot, cold, wet, or windy it might be!

Date:

Astronomy

Jan. 19, 2014 Rise Set
Actual Time 7:23 AM EST 4:44 PM EST
Civil Twilight 6:51 AM EST 5:16 PM EST
Nautical Twilight 6:15 AM EST 5:51 PM EST
Astronomical Twilight 5:40 AM EST 6:26 PM EST
Moon 8:29 PM EST (1/19) 8:42 AM EST (1/19)
Length of Visible Light 10h 25m
Length of Day
9h 20m
Waning Gibbous, 89% of the Moon is Illuminated
Jan 19
Waning Gibbous
Jan 24
Last Quarter
Jan 30
New
Feb 6
First Quarter
Feb 14
Full

Hourly Weather History & Observations

Time (EST) Temp. Windchill Dew Point Humidity Pressure Visibility Wind Dir Wind Speed Gust Speed Precip Events Conditions
12:54 AM 30.9 °F 23.5 °F 21.9 °F 69% 29.70 in 10.0 mi WNW 8.1 mph - 0.00 in   Overcast
1:54 AM 30.9 °F 26.2 °F 25.0 °F 79% 29.71 in 10.0 mi SSW 4.6 mph - N/A   Overcast
2:54 AM 30.9 °F 25.2 °F 21.9 °F 69% 29.71 in 10.0 mi NW 5.8 mph - N/A   Overcast
3:09 AM 30.9 °F 27.5 °F 25.0 °F 79% 29.70 in 4.0 mi SSE 3.5 mph - 0.00 in Snow Light Snow
3:14 AM 30.0 °F - 25.0 °F 82% 29.70 in 1.8 mi Calm Calm - 0.00 in Snow Light Snow
3:40 AM 30.0 °F - 26.1 °F 85% 29.69 in 2.0 mi Calm Calm - 0.01 in Snow Light Snow
3:46 AM 30.0 °F - 26.1 °F 85% 29.69 in 2.0 mi Calm Calm - 0.01 in Snow Light Snow
3:54 AM 30.0 °F - 26.1 °F 85% 29.70 in 2.0 mi Calm Calm - 0.01 in Snow Light Snow
4:29 AM 28.9 °F - 26.1 °F 89% 29.68 in 3.0 mi Calm Calm - 0.01 in Snow Light Snow
4:44 AM 28.9 °F - 26.1 °F 89% 29.67 in 3.0 mi Calm Calm - 0.01 in Snow Light Snow
4:54 AM 28.9 °F - 26.1 °F 89% 29.68 in 3.0 mi Calm Calm - 0.01 in Snow Light Snow
5:03 AM 28.9 °F - 26.1 °F 89% 29.67 in 3.0 mi Calm Calm - 0.00 in Snow Light Snow
5:37 AM 28.9 °F - 26.1 °F 89% 29.66 in 3.0 mi Calm Calm - 0.01 in Snow Light Snow
5:42 AM 28.9 °F - 26.1 °F 89% 29.66 in 2.0 mi Calm Calm - 0.01 in Snow Light Snow
5:54 AM 28.9 °F - 26.1 °F 89% 29.67 in 2.0 mi Calm Calm - 0.02 in Snow Light Snow
6:21 AM 28.9 °F - 25.0 °F 85% 29.66 in 2.0 mi Calm Calm - 0.02 in Snow Light Snow
6:35 AM 28.9 °F 21.9 °F 25.0 °F 85% 29.65 in 2.0 mi South 6.9 mph - 0.04 in Snow Light Snow
6:43 AM 28.0 °F 22.8 °F 25.0 °F 88% 29.65 in 2.0 mi South 4.6 mph - 0.04 in Snow Light Snow
6:49 AM 28.4 °F 24.6 °F 24.8 °F 86% 29.64 in 3.0 mi South 3.5 mph - 0.05 in Snow Light Snow
6:54 AM 28.0 °F 24.2 °F 25.0 °F 88% 29.65 in 3.0 mi South 3.5 mph - 0.05 in Snow Light Snow
7:03 AM 28.0 °F 24.2 °F 25.0 °F 88% 29.64 in 1.0 mi Variable 3.5 mph - 0.00 in Snow Light Snow
7:21 AM 27.0 °F 19.5 °F 24.1 °F 89% 29.63 in 0.2 mi South 6.9 mph - 0.01 in Fog , Snow Heavy Snow
7:38 AM 27.0 °F 19.5 °F 24.1 °F 89% 29.63 in 0.8 mi South 6.9 mph - 0.03 in Snow Light Snow
7:54 AM 27.0 °F 18.7 °F 24.1 °F 89% 29.64 in 0.5 mi South 8.1 mph - 0.04 in Fog , Snow Snow
8:54 AM 27.0 °F 16.7 °F 24.1 °F 89% 29.61 in 0.5 mi South 11.5 mph - 0.03 in Fog , Snow Snow
9:12 AM 27.0 °F 17.3 °F 23.0 °F 85% 29.58 in 1.0 mi South 10.4 mph - 0.01 in Snow Light Snow
9:17 AM 27.0 °F 16.7 °F 23.0 °F 85% 29.58 in 1.5 mi South 11.5 mph - 0.01 in Snow Light Snow
9:22 AM 27.0 °F 16.7 °F 23.0 °F 85% 29.58 in 2.0 mi South 11.5 mph - 0.01 in Snow Light Snow
9:30 AM 27.0 °F 16.1 °F 23.0 °F 85% 29.58 in 4.0 mi South 12.7 mph - 0.01 in Snow Light Snow
9:37 AM 27.0 °F 16.1 °F 23.0 °F 85% 29.58 in 7.0 mi South 12.7 mph - 0.01 in   Overcast
9:54 AM 27.0 °F 16.7 °F 21.9 °F 81% 29.59 in 10.0 mi South 11.5 mph - 0.01 in   Overcast
10:17 AM 27.0 °F 15.2 °F 21.0 °F 78% 29.57 in 6.0 mi South 15.0 mph - 0.00 in Snow Light Snow
10:47 AM 27.0 °F 15.6 °F 21.9 °F 81% 29.55 in 2.0 mi South 13.8 mph 21.9 mph 0.00 in Snow Light Snow
10:54 AM 27.0 °F 16.1 °F 21.0 °F 78% 29.57 in 4.0 mi South 12.7 mph 20.7 mph 0.00 in Snow Light Snow
11:54 AM 26.1 °F 14.0 °F 21.0 °F 81% 29.50 in 4.0 mi South 15.0 mph - 0.00 in Snow Light Snow
12:54 PM 27.0 °F 13.9 °F 19.0 °F 72% 29.47 in 10.0 mi South 18.4 mph 26.5 mph 0.00 in   Overcast
1:54 PM 27.0 °F 13.2 °F 18.0 °F 69% 29.44 in 8.0 mi South 20.7 mph 31.1 mph N/A   Overcast
2:54 PM 27.0 °F 15.6 °F 17.1 °F 66% 29.43 in 9.0 mi South 13.8 mph 24.2 mph N/A   Overcast
3:54 PM 27.0 °F 13.9 °F 17.1 °F 66% 29.43 in 4.0 mi South 18.4 mph 27.6 mph 0.00 in Snow Light Snow
4:54 PM 26.1 °F 13.6 °F 17.1 °F 69% 29.43 in 6.0 mi South 16.1 mph - 0.00 in Snow Light Snow
5:54 PM 27.0 °F 13.9 °F 17.1 °F 66% 29.43 in 9.0 mi SSW 18.4 mph 26.5 mph 0.00 in   Overcast
6:54 PM 27.0 °F 15.6 °F 18.0 °F 69% 29.44 in 10.0 mi SSW 13.8 mph 24.2 mph N/A   Overcast
7:54 PM 28.0 °F 16.1 °F 18.0 °F 66% 29.42 in 10.0 mi SSW 16.1 mph - N/A   Overcast
8:54 PM 28.9 °F 16.9 °F 19.0 °F 67% 29.43 in 10.0 mi SSW 17.3 mph 24.2 mph N/A   Overcast
9:54 PM 28.9 °F 17.7 °F 19.9 °F 69% 29.43 in 10.0 mi South 15.0 mph - N/A   Overcast
10:21 PM 28.9 °F 19.8 °F 21.0 °F 72% 29.42 in 4.0 mi SSW 10.4 mph - 0.00 in Snow Light Snow
10:54 PM 28.0 °F 18.1 °F 21.9 °F 78% 29.44 in 4.0 mi South 11.5 mph - 0.00 in Snow Light Snow
11:54 PM 28.9 °F 22.8 °F 21.9 °F 75% 29.44 in 4.0 mi SSE 5.8 mph - 0.00 in Snow Light Snow